K5BWX-2 Weather Reports


Display with metric or nautical units.
time (UTC)temp
F
wind
direction
speed
MPH
gust
MPH
rain 1hr
in
rain 24hr
in
rain mn
in
humidity
%
barometer
mb
20260505004119 65 202 3.0 10.0 0.00 0.00 0.00 61 1014.0
20260505004019 65 165 3.0 9.0 0.00 0.00 0.00 61 1014.1
20260505003920 65 212 3.0 9.0 0.00 0.00 0.00 61 1014.1
20260505003814 65 182 3.0 8.0 0.00 0.00 0.00 61 1014.1
20260505003714 65 207 3.0 8.0 0.00 0.00 0.00 61 1014.0
20260505003610 65 201 3.0 8.0 0.00 0.00 0.00 61 1014.1
20260505003512 65 205 3.0 8.0 0.00 0.00 0.00 61 1014.1
20260505003411 65 98 3.0 8.0 0.00 0.00 0.00 61 1014.0
20260505003311 65 200 3.0 8.0 0.00 0.00 0.00 60 1014.0
20260505003211 65 210 3.0 8.0 0.00 0.00 0.00 60 1014.0
20260505003110 65 205 3.0 8.0 0.00 0.00 0.00 60 1014.0
20260505003010 65 208 3.0 8.0 0.00 0.00 0.00 61 1014.0
20260505002948 65 203 2.0 8.0 0.00 0.00 0.00 60 1014.0
20260505002944 65 213 3.0 10.0 0.00 0.00 0.00 59 1014.0
20260505002938 65 211 3.0 11.0 0.00 0.00 0.00 59 1014.0
20260505002933 65 273 3.0 11.0 0.00 0.00 0.00 60 1014.0
20260505002928 65 171 3.0 11.0 0.00 0.00 0.00 59 1014.0
20260505002922 66 190 3.0 11.0 0.00 0.00 0.00 60 1014.1
20260505002912 65 215 3.0 8.0 0.00 0.00 0.00 60 1014.0
20260505002851 65 229 3.0 8.0 0.00 0.00 0.00 60 1014.0
20260505002709 65 245 2.0 8.0 0.00 0.00 0.00 60 1014.0
20260505002412 65 217 3.0 11.0 0.00 0.00 0.00 60 1014.0
20260505001908 66 208 3.0 11.0 0.00 0.00 0.00 59 1013.9
20260505001835 66 184 3.0 11.0 0.00 0.00 0.00 59 1014.0
20260505001826 66 194 3.0 11.0 0.00 0.00 0.00 59 1014.0
20260505001606 66 145 3.0 11.0 0.00 0.00 0.00 59 1014.0
20260505001505 66 178 3.0 11.0 0.00 0.00 0.00 59 1014.0
20260505001405 66 239 3.0 11.0 0.00 0.00 0.00 59 1014.0
20260505001306 66 188 4.0 16.0 0.00 0.00 0.00 59 1014.0
20260505001237 66 207 4.0 16.0 0.00 0.00 0.00 59 1014.0
20260505001227 66 228 4.0 16.0 0.00 0.00 0.00 59 1014.0
20260505001003 66 160 4.0 16.0 0.00 0.00 0.00 58 1014.0
20260505000902 66 219 4.0 16.0 0.00 0.00 0.00 58 1014.0
20260505000804 66 193 4.0 16.0 0.00 0.00 0.00 58 1013.9
20260505000704 66 229 3.0 16.0 0.00 0.00 0.00 58 1013.9
20260505000632 66 166 3.0 16.0 0.00 0.00 0.00 58 1013.9
20260505000622 66 233 4.0 16.0 0.00 0.00 0.00 58 1013.9
20260505000358 66 242 3.0 16.0 0.00 0.00 0.00 58 1013.9
20260505000257 66 240 3.0 12.0 0.00 0.00 0.00 59 1013.9
20260505000156 66 224 3.0 12.0 0.00 0.00 0.00 59 1013.9
20260505000057 66 215 3.0 12.0 0.00 0.00 0.00 58 1014.0
20260504235957 66 232 3.0 12.0 0.00 0.00 0.00 58 1013.9
20260504235857 66 236 3.0 12.0 0.00 0.00 0.00 58 1013.9
20260504235757 66 160 3.0 12.0 0.00 0.00 0.00 58 1013.9
20260504235656 66 205 3.0 12.0 0.00 0.00 0.00 58 1013.9
20260504235557 67 228 3.0 12.0 0.00 0.00 0.00 58 1013.9
20260504235457 67 178 3.0 12.0 0.00 0.00 0.00 57 1014.0
20260504235358 67 211 3.0 12.0 0.00 0.00 0.00 57 1014.0
20260504235326 67 213 3.0 11.0 0.00 0.00 0.00 58 1013.9
20260504235315 67 219 3.0 12.0 0.00 0.00 0.00 58 1013.9
20260504235053 67 215 3.0 11.0 0.00 0.00 0.00 57 1013.8
20260504234952 67 193 3.0 12.0 0.00 0.00 0.00 57 1013.9
20260504234853 67 188 4.0 12.0 0.00 0.00 0.00 57 1014.0
20260504234753 67 237 4.0 12.0 0.00 0.00 0.00 56 1013.9
20260504234655 67 175 4.0 16.0 0.00 0.00 0.00 56 1013.9
20260504234552 67 202 5.0 16.0 0.00 0.00 0.00 56 1013.9
20260504234453 67 227 4.0 16.0 0.00 0.00 0.00 56 1013.9
20260504234353 67 186 4.0 16.0 0.00 0.00 0.00 56 1014.0
20260504234253 67 306 5.0 16.0 0.00 0.00 0.00 56 1014.0
20260504234155 67 290 5.0 16.0 0.00 0.00 0.00 56 1014.0
20260504234052 67 204 5.0 16.0 0.00 0.00 0.00 56 1014.0
20260504233954 67 196 5.0 16.0 0.00 0.00 0.00 56 1014.0
20260504233852 67 184 5.0 16.0 0.00 0.00 0.00 56 1014.1
20260504233753 67 202 5.0 16.0 0.00 0.00 0.00 56 1014.0
20260504233653 67 198 4.0 13.0 0.00 0.00 0.00 56 1014.0
20260504233552 67 181 4.0 13.0 0.00 0.00 0.00 56 1014.0
20260504233453 67 209 5.0 13.0 0.00 0.00 0.00 55 1013.9
20260504233352 67 199 4.0 13.0 0.00 0.00 0.00 55 1014.0
20260504233254 68 167 4.0 13.0 0.00 0.00 0.00 56 1013.9
20260504233154 68 179 4.0 13.0 0.00 0.00 0.00 56 1013.9
20260504233146 68 194 3.0 13.0 0.00 0.00 0.00 55 1014.0
20260504233140 68 198 4.0 13.0 0.00 0.00 0.00 55 1014.0
20260504233127 68 211 4.0 13.0 0.00 0.00 0.00 56 1013.9
20260504233110 68 198 4.0 13.0 0.00 0.00 0.00 54 1014.0
20260504232825 68 160 3.0 13.0 0.00 0.00 0.00 55 1013.9
20260504232706 69 202 3.0 10.0 0.00 0.00 0.00 55 1014.0
20260504232654 68 235 3.0 13.0 0.00 0.00 0.00 55 1013.9
20260504232632 68 248 3.0 13.0 0.00 0.00 0.00 55 1013.9
20260504232247 69 217 3.0 10.0 0.00 0.00 0.00 55 1013.9
20260504232144 69 226 3.0 10.0 0.00 0.00 0.00 54 1014.0
20260504232046 69 189 3.0 10.0 0.00 0.00 0.00 55 1013.9
20260504232023 69 219 3.0 13.0 0.00 0.00 0.00 53 1013.9
20260504232010 69 128 3.0 10.0 0.00 0.00 0.00 55 1013.9
20260504231744 69 168 3.0 13.0 0.00 0.00 0.00 53 1013.9
20260504231714 69 199 3.0 13.0 0.00 0.00 0.00 54 1013.8
20260504231704 69 215 3.0 13.0 0.00 0.00 0.00 53 1013.8
20260504231445 69 184 3.0 13.0 0.00 0.00 0.00 55 1013.8
20260504231343 69 238 3.0 13.0 0.00 0.00 0.00 54 1013.9
20260504231243 69 236 3.0 13.0 0.00 0.00 0.00 55 1014.0
20260504231144 69 103 3.0 13.0 0.00 0.00 0.00 55 1014.0
20260504231110 69 229 3.0 13.0 0.00 0.00 0.00 54 1013.9
20260504231101 69 315 3.0 13.0 0.00 0.00 0.00 55 1013.9
20260504230840 69 204 3.0 12.0 0.00 0.00 0.00 55 1013.9
20260504230741 69 160 3.0 12.0 0.00 0.00 0.00 55 1013.9
20260504230643 69 78 3.0 12.0 0.00 0.00 0.00 55 1013.9
20260504230539 69 200 4.0 12.0 0.00 0.00 0.00 55 1013.9
20260504230438 69 215 4.0 12.0 0.00 0.00 0.00 54 1013.9
20260504230338 69 164 4.0 12.0 0.00 0.00 0.00 54 1013.8
20260504230239 69 171 4.0 17.0 0.00 0.00 0.00 54 1013.9
20260504230139 69 242 4.0 17.0 0.00 0.00 0.00 53 1013.8
20260504230040 69 167 4.0 17.0 0.00 0.00 0.00 54 1013.8
20260504225938 69 222 4.0 17.0 0.00 0.00 0.00 54 1013.8
20260504225840 70 254 4.0 17.0 0.00 0.00 0.00 53 1014.0
20260504225738 70 188 4.0 17.0 0.00 0.00 0.00 53 1013.9
20260504225639 70 191 5.0 17.0 0.00 0.00 0.00 53 1013.9
20260504225539 70 202 5.0 17.0 0.00 0.00 0.00 52 1013.9
20260504225438 70 221 5.0 17.0 0.00 0.00 0.00 53 1013.9
20260504225340 70 303 5.0 17.0 0.00 0.00 0.00 52 1013.9
20260504225241 70 184 5.0 19.0 0.00 0.00 0.00 52 1013.9
20260504225126 70 232 5.0 19.0 0.00 0.00 0.00 51 1013.9
20260504225028 70 219 5.0 19.0 0.00 0.00 0.00 51 1013.9
20260504224927 70 198 5.0 19.0 0.00 0.00 0.00 52 1013.9
20260504224827 70 207 5.0 19.0 0.00 0.00 0.00 52 1013.9
20260504224726 70 204 5.0 19.0 0.00 0.00 0.00 51 1013.9
20260504224628 70 218 5.0 19.0 0.00 0.00 0.00 52 1013.8
20260504224526 70 234 5.0 19.0 0.00 0.00 0.00 53 1013.9
20260504224426 70 158 5.0 19.0 0.00 0.00 0.00 53 1013.9
20260504224327 70 209 5.0 19.0 0.00 0.00 0.00 52 1013.8
20260504224226 70 145 5.0 19.0 0.00 0.00 0.00 52 1013.9
20260504224127 70 270 5.0 19.0 0.00 0.00 0.00 53 1013.9
20260504224026 70 231 5.0 19.0 0.00 0.00 0.00 52 1013.9
20260504223926 70 167 5.0 16.0 0.00 0.00 0.00 54 1013.8
20260504223828 70 185 5.0 16.0 0.00 0.00 0.00 53 1013.9
20260504223726 70 181 5.0 16.0 0.00 0.00 0.00 52 1013.9
20260504223628 70 180 4.0 16.0 0.00 0.00 0.00 53 1014.0
20260504223528 70 204 4.0 16.0 0.00 0.00 0.00 54 1013.9
20260504223428 70 209 4.0 16.0 0.00 0.00 0.00 54 1014.0
20260504223357 70 183 4.0 16.0 0.00 0.00 0.00 54 1013.9
20260504223347 70 215 4.0 16.0 0.00 0.00 0.00 53 1013.9
20260504223128 70 245 4.0 16.0 0.00 0.00 0.00 55 1013.9
20260504223027 70 209 4.0 12.0 0.00 0.00 0.00 55 1014.0
20260504222927 70 198 4.0 12.0 0.00 0.00 0.00 56 1013.9
20260504222826 70 251 4.0 12.0 0.00 0.00 0.00 56 1013.9
20260504222810 70 198 5.0 16.0 0.00 0.00 0.00 54 1014.0
20260504222754 70 254 4.0 14.0 0.00 0.00 0.00 55 1014.0
20260504222627 70 279 4.0 14.0 0.00 0.00 0.00 54 1014.0
20260504222621 70 188 5.0 16.0 0.00 0.00 0.00 54 1014.0
20260504222601 70 211 5.0 16.0 0.00 0.00 0.00 54 1014.0
20260504222224 70 208 5.0 16.0 0.00 0.00 0.00 54 1013.9
20260504222122 70 215 5.0 16.0 0.00 0.00 0.00 55 1014.0
20260504222022 70 169 5.0 16.0 0.00 0.00 0.00 55 1014.0
20260504221955 71 175 5.0 16.0 0.00 0.00 0.00 54 1013.9
20260504221944 70 246 5.0 16.0 0.00 0.00 0.00 55 1014.0
20260504221720 71 186 5.0 16.0 0.00 0.00 0.00 54 1013.9
20260504221630 71 222 4.0 16.0 0.00 0.00 0.00 55 1013.9
20260504221518 71 188 4.0 15.0 0.00 0.00 0.00 54 1013.9
20260504221418 71 232 4.0 15.0 0.00 0.00 0.00 55 1014.0
20260504221318 71 342 4.0 15.0 0.00 0.00 0.00 54 1014.1
20260504221218 71 301 3.0 14.0 0.00 0.00 0.00 53 1014.1
20260504221119 71 188 4.0 14.0 0.00 0.00 0.00 54 1014.1
20260504221019 71 271 4.0 14.0 0.00 0.00 0.00 54 1014.1
20260504220920 71 189 3.0 14.0 0.00 0.00 0.00 52 1014.0
20260504220819 71 168 3.0 13.0 0.00 0.00 0.00 53 1014.1
20260504220719 72 158 3.0 13.0 0.00 0.00 0.00 53 1014.1
20260504220654 72 111 3.0 13.0 0.00 0.00 0.00 55 1014.1
20260504220642 72 123 3.0 13.0 0.00 0.00 0.00 54 1014.1
20260504220447 71 235 4.0 13.0 0.00 0.00 0.00 54 1014.0
20260504220441 71 260 4.0 13.0 0.00 0.00 0.00 54 1014.0
20260504220428 72 44 3.0 13.0 0.00 0.00 0.00 54 1014.0
20260504220408 72 168 4.0 13.0 0.00 0.00 0.00 54 1014.0
20260504220018 71 183 4.0 13.0 0.00 0.00 0.00 53 1014.1
20260504215918 71 143 4.0 13.0 0.00 0.00 0.00 53 1014.2
20260504215820 71 172 4.0 13.0 0.00 0.00 0.00 53 1014.0
20260504215751 72 146 5.0 13.0 0.00 0.00 0.00 51 1013.9
20260504215740 71 155 4.0 13.0 0.00 0.00 0.00 51 1014.1
20260504215518 72 180 5.0 13.0 0.00 0.00 0.00 52 1014.0
20260504215436 72 200 4.0 13.0 0.00 0.00 0.00 52 1014.0
20260504215431 72 146 4.0 13.0 0.00 0.00 0.00 53 1013.9
20260504215420 72 197 5.0 13.0 0.00 0.00 0.00 51 1013.9
20260504215352 72 134 4.0 13.0 0.00 0.00 0.00 52 1013.9
20260504215014 72 220 4.0 13.0 0.00 0.00 0.00 51 1013.9
20260504214957 72 211 4.0 13.0 0.00 0.00 0.00 53 1013.9
20260504214945 72 44 4.0 13.0 0.00 0.00 0.00 52 1013.9
20260504214716 72 189 4.0 13.0 0.00 0.00 0.00 55 1013.9
20260504214615 72 223 4.0 15.0 0.00 0.00 0.00 54 1013.9
20260504214542 72 101 4.0 16.0 0.00 0.00 0.00 54 1013.9
20260504214531 72 137 4.0 16.0 0.00 0.00 0.00 54 1014.0
20260504214308 72 163 4.0 16.0 0.00 0.00 0.00 54 1013.9
20260504214208 72 162 5.0 16.0 0.00 0.00 0.00 54 1013.9
20260504214112 72 186 5.0 16.0 0.00 0.00 0.00 53 1013.9
20260504214050 72 225 5.0 16.0 0.00 0.00 0.00 51 1013.9
20260504214035 72 209 5.0 16.0 0.00 0.00 0.00 51 1013.9
20260504213832 72 220 5.0 16.0 0.00 0.00 0.00 50 1013.9
20260504213822 72 251 5.0 16.0 0.00 0.00 0.00 50 1013.9
20260504213601 72 210 4.0 16.0 0.00 0.00 0.00 49 1014.0
20260504213452 73 199 4.0 16.0 0.00 0.00 0.00 50 1013.9
20260504213424 73 219 3.0 13.0 0.00 0.00 0.00 51 1013.9
20260504213414 73 214 3.0 15.0 0.00 0.00 0.00 51 1014.0
20260504213152 73 180 3.0 13.0 0.00 0.00 0.00 52 1014.0
20260504213051 73 346 3.0 13.0 0.00 0.00 0.00 51 1013.9
20260504212946 73 217 3.0 13.0 0.00 0.00 0.00 52 1013.8
20260504212911 73 229 4.0 17.0 0.00 0.00 0.00 53 1013.9
20260504212857 73 321 3.0 13.0 0.00 0.00 0.00 54 1013.9
20260504212831 73 147 4.0 13.0 0.00 0.00 0.00 53 1013.9
20260504212708 73 174 4.0 17.0 0.00 0.00 0.00 54 1013.9
20260504212438 73 286 4.0 17.0 0.00 0.00 0.00 54 1013.9
20260504212411 73 188 5.0 17.0 0.00 0.00 0.00 51 1013.8
20260504212400 73 180 5.0 17.0 0.00 0.00 0.00 54 1013.9
20260504212139 73 171 5.0 17.0 0.00 0.00 0.00 52 1013.9
20260504212038 73 232 5.0 17.0 0.00 0.00 0.00 52 1013.8
20260504211928 72 112 6.0 17.0 0.00 0.00 0.00 52 1013.9
20260504211857 72 203 5.0 17.0 0.00 0.00 0.00 52 1013.8
20260504211847 72 219 6.0 17.0 0.00 0.00 0.00 52 1013.9
20260504211626 72 232 6.0 15.0 0.00 0.00 0.00 51 1013.9
20260504211540 72 177 5.0 15.0 0.00 0.00 0.00 50 1013.9
20260504211534 72 200 6.0 15.0 0.00 0.00 0.00 50 1013.9
20260504211525 72 59 5.0 15.0 0.00 0.00 0.00 52 1013.8
20260504211502 72 210 6.0 15.0 0.00 0.00 0.00 51 1013.7
20260504211118 72 226 6.0 15.0 0.00 0.00 0.00 50 1013.8
20260504211019 72 200 6.0 19.0 0.00 0.00 0.00 50 1013.8
20260504210914 72 242 5.0 19.0 0.00 0.00 0.00 52 1013.8
20260504210850 72 200 5.0 19.0 0.00 0.00 0.00 51 1013.8
20260504210838 72 171 5.0 19.0 0.00 0.00 0.00 52 1013.8
20260504210615 72 101 5.0 19.0 0.00 0.00 0.00 50 1013.9
20260504210513 72 211 6.0 19.0 0.00 0.00 0.00 50 1013.9
20260504210402 73 182 5.0 19.0 0.00 0.00 0.00 49 1013.9
20260504210303 73 126 5.0 19.0 0.00 0.00 0.00 49 1013.9
20260504210204 73 196 5.0 19.0 0.00 0.00 0.00 52 1013.9
20260504210104 73 167 4.0 19.0 0.00 0.00 0.00 51 1014.0
20260504210004 73 228 4.0 15.0 0.00 0.00 0.00 50 1013.8
20260504205857 73 202 4.0 15.0 0.00 0.00 0.00 50 1013.9
20260504205757 73 175 4.0 15.0 0.00 0.00 0.00 52 1013.8
20260504205657 73 182 4.0 14.0 0.00 0.00 0.00 52 1013.9
20260504205556 73 178 4.0 12.0 0.00 0.00 0.00 52 1013.9
20260504205456 73 276 4.0 12.0 0.00 0.00 0.00 51 1013.9
20260504205350 73 218 4.0 12.0 0.00 0.00 0.00 53 1014.0
20260504205250 73 241 4.0 17.0 0.00 0.00 0.00 52 1013.9
20260504205152 73 332 4.0 17.0 0.00 0.00 0.00 50 1014.1
20260504205051 73 193 4.0 17.0 0.00 0.00 0.00 52 1014.1
20260504204950 73 221 4.0 17.0 0.00 0.00 0.00 52 1014.1
20260504204840 73 161 4.0 17.0 0.00 0.00 0.00 51 1014.2
20260504204740 73 216 4.0 17.0 0.00 0.00 0.00 50 1014.2
20260504204640 73 211 4.0 17.0 0.00 0.00 0.00 51 1014.3
20260504204541 74 93 4.0 17.0 0.00 0.00 0.00 50 1014.3
20260504204442 74 135 3.0 17.0 0.00 0.00 0.00 50 1014.2
20260504204339 74 194 3.0 17.0 0.00 0.00 0.00 49 1014.2
20260504204238 74 227 3.0 13.0 0.00 0.00 0.00 50 1014.2
20260504204138 74 220 3.0 13.0 0.00 0.00 0.00 49 1014.3
20260504204037 74 202 4.0 13.0 0.00 0.00 0.00 54 1014.3
20260504204007 73 248 4.0 14.0 0.00 0.00 0.00 53 1014.2
20260504203957 74 32 4.0 14.0 0.00 0.00 0.00 53 1014.3
20260504203736 73 173 4.0 14.0 0.00 0.00 0.00 53 1014.3
20260504203635 73 87 4.0 17.0 0.00 0.00 0.00 53 1014.3
20260504203535 73 200 5.0 17.0 0.00 0.00 0.00 51 1014.3
20260504203434 73 355 5.0 17.0 0.00 0.00 0.00 50 1014.3
20260504203336 73 204 5.0 17.0 0.00 0.00 0.00 49 1014.3
20260504203235 73 197 4.0 17.0 0.00 0.00 0.00 51 1014.4
20260504203134 73 188 4.0 17.0 0.00 0.00 0.00 52 1014.3
20260504203128 73 225 4.0 18.0 0.00 0.00 0.00 51 1014.3
20260504203122 73 205 4.0 17.0 0.00 0.00 0.00 52 1014.3
20260504203105 73 274 4.0 17.0 0.00 0.00 0.00 52 1014.3
20260504202937 73 133 5.0 17.0 0.00 0.00 0.00 51 1014.3
20260504202914 73 212 4.0 17.0 0.00 0.00 0.00 52 1014.3
20260504202530 73 118 4.0 18.0 0.00 0.00 0.00 51 1014.3
20260504202459 73 200 4.0 18.0 0.00 0.00 0.00 50 1014.3
20260504202448 73 150 4.0 18.0 0.00 0.00 0.00 50 1014.2
20260504202250 73 144 4.0 18.0 0.00 0.00 0.00 53 1014.4
20260504202237 73 144 5.0 18.0 0.00 0.00 0.00 52 1014.3
20260504202214 73 184 4.0 18.0 0.00 0.00 0.00 51 1014.4
20260504202051 73 236 4.0 18.0 0.00 0.00 0.00 51 1014.4
20260504201827 73 144 5.0 18.0 0.00 0.00 0.00 51 1014.4
20260504201726 73 196 5.0 18.0 0.00 0.00 0.00 51 1014.5
20260504201654 73 194 5.0 18.0 0.00 0.00 0.00 50 1014.5
20260504201523 73 250 5.0 18.0 0.00 0.00 0.00 50 1014.5
20260504201416 73 200 5.0 18.0 0.00 0.00 0.00 49 1014.5
20260504201317 73 189 5.0 18.0 0.00 0.00 0.00 49 1014.5
20260504201216 73 144 5.0 18.0 0.00 0.00 0.00 49 1014.5
20260504201116 73 126 5.0 18.0 0.00 0.00 0.00 49 1014.5
20260504201016 73 191 5.0 18.0 0.00 0.00 0.00 48 1014.5
20260504200912 73 225 5.0 18.0 0.00 0.00 0.00 50 1014.6
20260504200813 73 190 5.0 18.0 0.00 0.00 0.00 51 1014.5
20260504200712 73 148 4.0 18.0 0.00 0.00 0.00 51 1014.6
20260504200613 73 172 4.0 17.0 0.00 0.00 0.00 52 1014.5
20260504200539 73 182 4.0 15.0 0.00 0.00 0.00 51 1014.8
20260504200529 73 310 4.0 15.0 0.00 0.00 0.00 51 1014.7
20260504200304 73 125 5.0 15.0 0.00 0.00 0.00 52 1014.6
20260504200201 73 188 5.0 20.0 0.00 0.00 0.00 50 1014.7
20260504200001 73 225 5.0 20.0 0.00 0.00 0.00 52 1014.8
20260504195936 72 194 4.0 20.0 0.00 0.00 0.00 53 1014.8
20260504195925 72 273 4.0 20.0 0.00 0.00 0.00 54 1014.8
20260504195659 72 182 5.0 20.0 0.00 0.00 0.00 54 1014.8
20260504195602 72 146 5.0 20.0 0.00 0.00 0.00 53 1014.7
20260504195501 72 204 5.0 20.0 0.00 0.00 0.00 52 1014.7
20260504195359 72 187 5.0 20.0 0.00 0.00 0.00 54 1014.8
20260504195258 72 250 5.0 20.0 0.00 0.00 0.00 53 1014.7
20260504195229 72 39 5.0 17.0 0.00 0.00 0.00 54 1014.7
20260504195218 72 122 4.0 17.0 0.00 0.00 0.00 55 1014.8
20260504194958 72 204 5.0 17.0 0.00 0.00 0.00 53 1014.7
20260504194858 72 206 5.0 17.0 0.00 0.00 0.00 54 1015.0
20260504194758 72 208 5.0 16.0 0.00 0.00 0.00 53 1015.0
20260504194654 72 29 5.0 16.0 0.00 0.00 0.00 53 1015.0
20260504194554 72 332 6.0 16.0 0.00 0.00 0.00 54 1015.0
20260504194527 72 187 5.0 16.0 0.00 0.00 0.00 52 1015.1
20260504194515 72 185 5.0 16.0 0.00 0.00 0.00 53 1015.1
20260504194255 73 186 6.0 16.0 0.00 0.00 0.00 51 1015.1
20260504194154 73 196 6.0 16.0 0.00 0.00 0.00 50 1015.1
20260504194054 73 226 6.0 16.0 0.00 0.00 0.00 50 1015.1
20260504193954 73 199 5.0 16.0 0.00 0.00 0.00 50 1015.1
20260504193925 73 258 5.0 16.0 0.00 0.00 0.00 52 1015.1
20260504193916 73 209 5.0 16.0 0.00 0.00 0.00 50 1015.1
20260504193654 73 196 5.0 16.0 0.00 0.00 0.00 55 1015.1
20260504193555 73 190 4.0 16.0 0.00 0.00 0.00 53 1015.1
20260504193456 73 164 4.0 16.0 0.00 0.00 0.00 52 1015.1
20260504193354 73 196 4.0 16.0 0.00 0.00 0.00 52 1015.2
20260504193254 73 168 4.0 19.0 0.00 0.00 0.00 53 1015.1
20260504193155 73 210 4.0 19.0 0.00 0.00 0.00 56 1015.1
20260504193055 72 209 5.0 19.0 0.00 0.00 0.00 55 1015.2
20260504192953 72 184 5.0 19.0 0.00 0.00 0.00 53 1015.2
20260504192853 72 213 5.0 19.0 0.00 0.00 0.00 56 1015.2
20260504192809 71 161 6.0 19.0 0.00 0.00 0.00 55 1015.3
20260504192758 72 205 5.0 19.0 0.00 0.00 0.00 56 1015.2
20260504192737 72 355 5.0 19.0 0.00 0.00 0.00 55 1015.2
20260504192614 71 207 6.0 19.0 0.00 0.00 0.00 56 1015.1
20260504192352 71 207 6.0 19.0 0.00 0.00 0.00 57 1015.2
20260504192330 71 240 6.0 16.0 0.00 0.00 0.00 56 1015.3
20260504192314 71 200 6.0 16.0 0.00 0.00 0.00 56 1015.1
20260504192051 71 251 6.0 16.0 0.00 0.00 0.00 56 1015.3
20260504191952 71 217 6.0 16.0 0.00 0.00 0.00 55 1015.2
20260504191937 71 202 6.0 18.0 0.00 0.00 0.00 54 1015.2
20260504191932 71 269 5.0 18.0 0.00 0.00 0.00 55 1015.3
20260504191926 71 225 5.0 18.0 0.00 0.00 0.00 55 1015.2
20260504191916 71 205 6.0 16.0 0.00 0.00 0.00 54 1015.3
20260504191730 71 257 6.0 18.0 0.00 0.00 0.00 53 1015.3
20260504191346 71 184 6.0 18.0 0.00 0.00 0.00 54 1015.4
20260504191243 71 227 6.0 18.0 0.00 0.00 0.00 54 1015.3
20260504191216 72 196 6.0 18.0 0.00 0.00 0.00 53 1015.4
20260504191203 71 217 6.0 18.0 0.00 0.00 0.00 53 1015.3
20260504190942 72 242 6.0 18.0 0.00 0.00 0.00 54 1015.4
20260504190841 72 201 6.0 18.0 0.00 0.00 0.00 53 1015.3
20260504190735 72 192 6.0 18.0 0.00 0.00 0.00 56 1015.4
20260504190637 72 204 6.0 18.0 0.00 0.00 0.00 54 1015.3
20260504190535 72 205 7.0 18.0 0.00 0.00 0.00 53 1015.4
20260504190434 72 229 7.0 18.0 0.00 0.00 0.00 54 1015.4
20260504190335 72 186 7.0 18.0 0.00 0.00 0.00 53 1015.5
20260504190227 72 241 6.0 18.0 0.00 0.00 0.00 54 1015.5
20260504190128 72 197 6.0 18.0 0.00 0.00 0.00 55 1015.4
20260504190057 72 261 5.0 18.0 0.00 0.00 0.00 54 1015.6
20260504190048 72 213 6.0 18.0 0.00 0.00 0.00 54 1015.5
20260504185825 72 233 4.0 18.0 0.00 0.00 0.00 53 1015.6
20260504185718 72 247 4.0 16.0 0.00 0.00 0.00 55 1015.4
20260504185654 72 241 4.0 15.0 0.00 0.00 0.00 53 1015.4
20260504185641 72 190 4.0 16.0 0.00 0.00 0.00 54 1015.6
20260504185419 72 219 3.0 14.0 0.00 0.00 0.00 55 1015.5
20260504185319 72 192 3.0 14.0 0.00 0.00 0.00 58 1015.6
20260504185215 72 202 3.0 14.0 0.00 0.00 0.00 57 1015.6
20260504185117 72 134 3.0 14.0 0.00 0.00 0.00 58 1015.6
20260504185015 72 198 3.0 14.0 0.00 0.00 0.00 60 1015.6
20260504184915 72 193 4.0 15.0 0.00 0.00 0.00 60 1015.6
20260504184812 72 196 4.0 15.0 0.00 0.00 0.00 58 1015.7
20260504184705 72 213 5.0 15.0 0.00 0.00 0.00 57 1015.6
20260504184608 72 325 4.0 15.0 0.00 0.00 0.00 56 1015.7
20260504184536 72 111 5.0 15.0 0.00 0.00 0.00 54 1015.7
20260504184405 72 184 5.0 15.0 0.00 0.00 0.00 54 1015.7
20260504184329 72 323 4.0 15.0 0.00 0.00 0.00 56 1015.8
20260504184320 72 229 5.0 15.0 0.00 0.00 0.00 55 1015.8
20260504184057 72 161 5.0 15.0 0.00 0.00 0.00 53 1015.7
20260504183959 72 200 4.0 14.0 0.00 0.00 0.00 54 1015.8
20260504183922 72 213 4.0 10.0 0.00 0.00 0.00 55 1015.7
20260504183917 72 215 4.0 10.0 0.00 0.00 0.00 58 1015.7
20260504183905 72 155 4.0 14.0 0.00 0.00 0.00 56 1015.7
20260504183849 72 145 4.0 14.0 0.00 0.00 0.00 56 1015.7
20260504183557 72 187 4.0 10.0 0.00 0.00 0.00 58 1015.8
20260504183532 72 144 4.0 10.0 0.00 0.00 0.00 55 1015.7
20260504183253 72 184 4.0 12.0 0.00 0.00 0.00 57 1015.8
20260504183138 72 192 4.0 12.0 0.00 0.00 0.00 60 1015.8
20260504183107 72 207 4.0 12.0 0.00 0.00 0.00 57 1015.7
20260504183057 72 175 4.0 12.0 0.00 0.00 0.00 60 1015.8
20260504182836 71 192 4.0 12.0 0.00 0.00 0.00 57 1015.8
20260504182736 71 242 4.0 12.0 0.00 0.00 0.00 57 1015.7
20260504182705 71 225 4.0 12.0 0.00 0.00 0.00 55 1015.8
20260504182655 71 221 4.0 12.0 0.00 0.00 0.00 55 1015.8
20260504182432 71 204 3.0 12.0 0.00 0.00 0.00 56 1015.8
20260504182333 71 155 4.0 11.0 0.00 0.00 0.00 59 1015.8
20260504182230 71 255 4.0 11.0 0.00 0.00 0.00 61 1015.8
20260504182127 71 230 4.0 11.0 0.00 0.00 0.00 61 1015.8
20260504182055 70 177 5.0 12.0 0.00 0.00 0.00 59 1015.7
20260504182046 70 243 4.0 11.0 0.00 0.00 0.00 60 1015.8
20260504181824 70 207 5.0 16.0 0.00 0.00 0.00 58 1015.7
20260504181725 70 338 5.0 16.0 0.00 0.00 0.00 58 1015.8
20260504181617 70 228 5.0 16.0 0.00 0.00 0.00 57 1015.8
20260504181514 70 190 5.0 16.0 0.00 0.00 0.00 57 1015.7
20260504181413 70 206 5.0 16.0 0.00 0.00 0.00 58 1015.8
20260504181315 69 202 5.0 16.0 0.00 0.00 0.00 57 1015.8
20260504181245 70 206 5.0 16.0 0.00 0.00 0.00 57 1015.8
20260504181234 70 190 5.0 16.0 0.00 0.00 0.00 56 1015.8
20260504181008 70 190 5.0 16.0 0.00 0.00 0.00 59 1015.9
20260504180909 70 198 4.0 15.0 0.00 0.00 0.00 59 1015.9
20260504180808 70 234 4.0 15.0 0.00 0.00 0.00 59 1016.0
20260504180709 70 303 4.0 12.0 0.00 0.00 0.00 59 1016.0
20260504180639 70 219 4.0 12.0 0.00 0.00 0.00 59 1016.1
20260504180628 70 177 4.0 12.0 0.00 0.00 0.00 59 1016.0
20260504180404 70 200 5.0 13.0 0.00 0.00 0.00 58 1016.1
20260504180333 70 196 5.0 15.0 0.00 0.00 0.00 59 1016.1
20260504180323 70 243 5.0 15.0 0.00 0.00 0.00 57 1016.1
20260504180050 69 175 4.0 15.0 0.00 0.00 0.00 59 1016.0
20260504175951 69 255 5.0 15.0 0.00 0.00 0.00 60 1016.0
20260504175923 69 96 5.0 15.0 0.00 0.00 0.00 58 1016.1
20260504175913 69 227 5.0 15.0 0.00 0.00 0.00 61 1016.0
20260504175649 69 217 5.0 15.0 0.00 0.00 0.00 57 1015.9
20260504175550 69 225 4.0 15.0 0.00 0.00 0.00 58 1016.0
20260504175450 70 215 4.0 15.0 0.00 0.00 0.00 57 1016.0
20260504175350 70 243 4.0 15.0 0.00 0.00 0.00 58 1016.0
20260504175251 70 246 4.0 14.0 0.00 0.00 0.00 58 1015.9
20260504175149 70 223 4.0 14.0 0.00 0.00 0.00 59 1016.0
20260504175050 70 219 4.0 14.0 0.00 0.00 0.00 58 1015.9
20260504175020 70 161 4.0 14.0 0.00 0.00 0.00 59 1015.9
20260504175011 70 178 4.0 14.0 0.00 0.00 0.00 60 1016.0
20260504174751 70 134 4.0 14.0 0.00 0.00 0.00 58 1016.0
20260504174649 70 239 5.0 15.0 0.00 0.00 0.00 59 1016.0
20260504174550 70 209 5.0 15.0 0.00 0.00 0.00 58 1016.0
20260504174451 70 267 5.0 15.0 0.00 0.00 0.00 58 1016.0
20260504174347 70 202 4.0 15.0 0.00 0.00 0.00 58 1015.9
20260504174247 70 201 5.0 15.0 0.00 0.00 0.00 62 1015.9
20260504174149 70 200 4.0 15.0 0.00 0.00 0.00 60 1015.9
20260504174049 70 226 5.0 15.0 0.00 0.00 0.00 58 1015.9
20260504174021 70 211 5.0 15.0 0.00 0.00 0.00 59 1016.0
20260504174008 70 284 5.0 15.0 0.00 0.00 0.00 56 1016.0
20260504173748 70 209 5.0 15.0 0.00 0.00 0.00 58 1016.0
20260504173648 70 264 4.0 13.0 0.00 0.00 0.00 58 1016.0
20260504173549 70 198 4.0 13.0 0.00 0.00 0.00 58 1015.9
20260504173448 70 213 5.0 13.0 0.00 0.00 0.00 58 1016.0
20260504173349 70 239 5.0 13.0 0.00 0.00 0.00 57 1015.9
20260504173248 70 288 5.0 16.0 0.00 0.00 0.00 56 1016.0
20260504173150 70 229 5.0 16.0 0.00 0.00 0.00 56 1016.0
20260504173047 70 257 5.0 16.0 0.00 0.00 0.00 55 1016.0
20260504172949 70 206 5.0 16.0 0.00 0.00 0.00 57 1016.2
20260504172849 70 223 5.0 17.0 0.00 0.00 0.00 57 1016.3
20260504172822 70 267 5.0 17.0 0.00 0.00 0.00 59 1016.3
20260504172811 70 247 5.0 17.0 0.00 0.00 0.00 57 1016.2
20260504172547 70 241 5.0 17.0 0.00 0.00 0.00 61 1016.2
20260504172449 70 202 5.0 17.0 0.00 0.00 0.00 59 1016.3
20260504172424 69 229 4.0 17.0 0.00 0.00 0.00 57 1016.3
20260504172419 69 232 5.0 18.0 0.00 0.00 0.00 60 1016.3
20260504172409 69 239 5.0 17.0 0.00 0.00 0.00 58 1016.2
20260504172344 69 195 4.0 17.0 0.00 0.00 0.00 57 1016.3
20260504172230 69 215 4.0 18.0 0.00 0.00 0.00 59 1016.3
20260504172226 69 197 5.0 18.0 0.00 0.00 0.00 59 1016.2
20260504172214 69 200 4.0 17.0 0.00 0.00 0.00 58 1016.2
20260504172034 69 256 4.0 18.0 0.00 0.00 0.00 57 1016.3
20260504171848 69 247 5.0 18.0 0.00 0.00 0.00 60 1016.2
20260504171606 69 231 5.0 18.0 0.00 0.00 0.00 58 1016.2
20260504171338 69 181 5.0 18.0 0.00 0.00 0.00 59 1016.3
20260504171239 69 173 6.0 18.0 0.00 0.00 0.00 58 1016.3
20260504171137 68 227 6.0 18.0 0.00 0.00 0.00 58 1016.2
20260504171107 69 200 6.0 18.0 0.00 0.00 0.00 59 1016.3
20260504171058 69 186 6.0 18.0 0.00 0.00 0.00 59 1016.3
20260504170910 69 204 4.0 13.0 0.00 0.00 0.00 58 1016.4
20260504170904 69 182 4.0 13.0 0.00 0.00 0.00 58 1016.4
20260504170858 69 211 4.0 13.0 0.00 0.00 0.00 56 1016.3
20260504170853 70 201 3.0 12.0 0.00 0.00 0.00 58 1016.3
20260504170841 69 240 5.0 18.0 0.00 0.00 0.00 58 1016.3
20260504170821 69 205 5.0 17.0 0.00 0.00 0.00 58 1016.3
20260504170757 69 209 4.0 13.0 0.00 0.00 0.00 57 1016.3
20260504170134 70 236 3.0 12.0 0.00 0.00 0.00 57 1016.5
20260504160400 66 214 3.0 12.0 0.00 0.00 0.00 62 1017.3
20260504160334 66 230 3.0 12.0 0.00 0.00 0.00 63 1017.3
20260504160322 66 211 3.0 12.0 0.00 0.00 0.00 62 1017.3
20260504150951 61 211 6.0 17.0 0.00 0.00 0.00 66 1017.2
20260504150851 61 217 6.0 17.0 0.00 0.00 0.00 65 1017.2
20260504150752 61 208 6.0 17.0 0.00 0.00 0.00 65 1017.2
20260504150651 61 225 6.0 17.0 0.00 0.00 0.00 65 1017.2
20260504150552 61 187 6.0 14.0 0.00 0.00 0.00 67 1017.1
20260504150452 61 186 6.0 14.0 0.00 0.00 0.00 67 1017.1
20260504150353 61 235 6.0 14.0 0.00 0.00 0.00 66 1017.2
20260504150309 61 205 5.0 14.0 0.00 0.00 0.00 67 1017.2
20260504150304 61 196 5.0 14.0 0.00 0.00 0.00 67 1017.1
20260504150253 61 178 6.0 14.0 0.00 0.00 0.00 66 1017.1
20260504150230 61 259 6.0 14.0 0.00 0.00 0.00 65 1017.1
20260504141128 57 213 7.0 16.0 0.00 0.00 0.00 70 1017.4
20260504141028 57 192 7.0 17.0 0.00 0.00 0.00 70 1017.3
20260504140928 57 213 7.0 17.0 0.00 0.00 0.00 70 1017.3
20260504140825 57 210 6.0 17.0 0.00 0.00 0.00 70 1017.4
20260504140725 56 234 6.0 17.0 0.00 0.00 0.00 70 1017.4
20260504140626 56 211 6.0 17.0 0.00 0.00 0.00 71 1017.4
20260504140528 56 207 6.0 17.0 0.00 0.00 0.00 71 1017.4
20260504140426 56 195 6.0 17.0 0.00 0.00 0.00 71 1017.4
20260504140325 56 213 6.0 17.0 0.00 0.00 0.00 70 1017.4
20260504140226 56 210 6.0 17.0 0.00 0.00 0.00 70 1017.4
20260504140152 56 207 7.0 16.0 0.00 0.00 0.00 70 1017.4
20260504140136 56 217 6.0 17.0 0.00 0.00 0.00 70 1017.5
20260504140112 56 208 6.0 16.0 0.00 0.00 0.00 70 1017.4
20260504130811 53 209 6.0 17.0 0.00 0.00 0.00 71 1017.4
20260504130711 53 209 6.0 17.0 0.00 0.00 0.00 71 1017.3
20260504130609 53 194 6.0 17.0 0.00 0.00 0.00 70 1017.4
20260504130507 52 227 6.0 17.0 0.00 0.00 0.00 70 1017.3
20260504130406 52 194 6.0 16.0 0.00 0.00 0.00 71 1017.3
20260504130343 52 190 6.0 13.0 0.00 0.00 0.00 70 1017.4
20260504130330 52 203 6.0 14.0 0.00 0.00 0.00 71 1017.4
20260504130108 52 238 6.0 12.0 0.00 0.00 0.00 70 1017.3
20260504120253 51 244 7.0 18.0 0.00 0.00 0.00 70 1016.9
20260504120148 51 224 6.0 18.0 0.00 0.00 0.00 70 1016.9
20260504120123 51 168 7.0 18.0 0.00 0.00 0.00 70 1016.9
20260504120112 51 196 7.0 18.0 0.00 0.00 0.00 70 1016.9
20260504110706 51 219 7.0 21.0 0.00 0.00 0.00 68 1016.4
20260504110607 51 208 7.0 21.0 0.00 0.00 0.00 68 1016.4
20260504110506 51 206 7.0 21.0 0.00 0.00 0.00 68 1016.5
20260504110406 51 200 7.0 21.0 0.00 0.00 0.00 68 1016.4
20260504110306 51 215 7.0 21.0 0.00 0.00 0.00 68 1016.4
20260504110203 51 200 7.0 21.0 0.00 0.00 0.00 68 1016.4
20260504100610 51 197 6.0 16.0 0.00 0.00 0.00 68 1016.2
20260504100510 51 200 6.0 16.0 0.00 0.00 0.00 68 1016.2
20260504100410 51 196 7.0 16.0 0.00 0.00 0.00 68 1016.3
20260504100310 51 187 7.0 16.0 0.00 0.00 0.00 67 1016.3
20260504100203 51 215 7.0 16.0 0.00 0.00 0.00 67 1016.3
20260504100104 51 210 7.0 16.0 0.00 0.00 0.00 67 1016.3
20260504081933 52 224 7.0 18.0 0.00 0.00 0.00 64 1016.5
20260504081905 52 198 7.0 18.0 0.00 0.00 0.00 63 1016.5
20260504081855 52 202 7.0 18.0 0.00 0.00 0.00 64 1016.5
20260504081830 52 169 7.0 18.0 0.00 0.00 0.00 64 1016.5
20260504081708 52 225 7.0 18.0 0.00 0.00 0.00 64 1016.5
20260504081428 52 298 7.0 18.0 0.00 0.00 0.00 64 1016.5
20260504081327 52 184 7.0 17.0 0.00 0.00 0.00 64 1016.5
20260504081301 52 200 7.0 16.0 0.00 0.00 0.00 63 1016.5
20260504081250 52 211 7.0 16.0 0.00 0.00 0.00 64 1016.7
20260504081027 52 194 7.0 16.0 0.00 0.00 0.00 64 1016.5
20260504080923 52 209 7.0 16.0 0.00 0.00 0.00 64 1016.5
20260504080828 52 203 7.0 16.0 0.00 0.00 0.00 64 1016.8
20260504080720 52 200 7.0 16.0 0.00 0.00 0.00 64 1016.8
20260504080621 52 209 7.0 15.0 0.00 0.00 0.00 64 1016.8
20260504080521 52 246 7.0 15.0 0.00 0.00 0.00 64 1016.7
20260504080414 52 205 7.0 15.0 0.00 0.00 0.00 64 1016.7
20260504080315 52 194 6.0 15.0 0.00 0.00 0.00 64 1016.5
20260504080214 52 213 7.0 15.0 0.00 0.00 0.00 64 1016.7
20260504080115 52 187 7.0 15.0 0.00 0.00 0.00 64 1016.7
20260504070307 51 190 6.0 16.0 0.00 0.00 0.00 65 1017.0
20260504070256 51 219 6.0 16.0 0.00 0.00 0.00 65 1017.0
20260504060233 52 217 7.0 18.0 0.00 0.00 0.00 62 1017.0
20260504060204 52 206 7.0 16.0 0.00 0.00 0.00 62 1017.0
20260504060155 52 213 7.0 16.0 0.00 0.00 0.00 62 1017.0
20260504050559 52 202 8.0 18.0 0.00 0.00 0.00 62 1017.1
20260504050458 52 192 8.0 18.0 0.00 0.00 0.00 62 1017.1
20260504050433 52 217 8.0 18.0 0.00 0.00 0.00 62 1017.0
20260504050421 52 196 8.0 18.0 0.00 0.00 0.00 62 1017.1
20260504050157 52 186 8.0 18.0 0.00 0.00 0.00 63 1017.0
20260504045957 52 198 8.0 18.0 0.00 0.00 0.00 63 1017.1
20260504045929 52 195 8.0 16.0 0.00 0.00 0.00 63 1017.1
20260504045919 52 190 8.0 16.0 0.00 0.00 0.00 63 1017.0
20260504045657 52 181 8.0 16.0 0.00 0.00 0.00 63 1017.1
20260504045553 52 204 8.0 17.0 0.00 0.00 0.00 63 1017.1
20260504045453 52 198 8.0 17.0 0.00 0.00 0.00 63 1017.2
20260504045427 52 223 8.0 17.0 0.00 0.00 0.00 63 1017.2
20260504045414 52 200 8.0 17.0 0.00 0.00 0.00 63 1017.1
20260504045151 52 216 8.0 17.0 0.00 0.00 0.00 63 1017.2
20260504045046 52 203 7.0 17.0 0.00 0.00 0.00 63 1017.2
20260504044946 52 200 7.0 17.0 0.00 0.00 0.00 63 1017.2
20260504044846 52 186 7.0 17.0 0.00 0.00 0.00 63 1017.2
20260504044745 52 202 7.0 17.0 0.00 0.00 0.00 63 1017.2
20260504044646 52 200 7.0 17.0 0.00 0.00 0.00 63 1017.3
20260504044540 52 211 8.0 15.0 0.00 0.00 0.00 63 1017.2
20260504044438 52 219 8.0 15.0 0.00 0.00 0.00 63 1017.2
20260504044339 52 199 8.0 18.0 0.00 0.00 0.00 63 1017.2
20260504044238 52 205 8.0 18.0 0.00 0.00 0.00 63 1017.3
20260504044135 52 203 7.0 18.0 0.00 0.00 0.00 63 1017.2
20260504044030 52 206 7.0 18.0 0.00 0.00 0.00 63 1017.2
20260504043929 52 223 7.0 18.0 0.00 0.00 0.00 63 1017.3
20260504043902 52 198 7.0 18.0 0.00 0.00 0.00 63 1017.4
20260504043851 52 192 7.0 18.0 0.00 0.00 0.00 63 1017.4
20260504043701 52 206 7.0 18.0 0.00 0.00 0.00 63 1017.3
20260504043651 52 212 7.0 18.0 0.00 0.00 0.00 63 1017.3
20260504043423 52 202 7.0 18.0 0.00 0.00 0.00 63 1017.3
20260504043322 52 195 6.0 14.0 0.00 0.00 0.00 63 1017.4
20260504043224 52 209 7.0 14.0 0.00 0.00 0.00 63 1017.4
20260504043124 52 203 7.0 14.0 0.00 0.00 0.00 63 1017.3
20260504043053 53 190 7.0 16.0 0.00 0.00 0.00 63 1017.4
20260504043041 53 205 7.0 14.0 0.00 0.00 0.00 63 1017.4
20260504042816 53 250 7.0 16.0 0.00 0.00 0.00 62 1017.5
20260504042716 53 198 7.0 16.0 0.00 0.00 0.00 62 1017.4
20260504042612 53 187 7.0 16.0 0.00 0.00 0.00 62 1017.4
20260504042549 52 201 7.0 16.0 0.00 0.00 0.00 62 1017.5
20260504042537 53 203 7.0 16.0 0.00 0.00 0.00 62 1017.4
20260504042313 52 190 7.0 16.0 0.00 0.00 0.00 62 1017.4
20260504042212 52 190 6.0 16.0 0.00 0.00 0.00 63 1017.5
20260504042113 53 192 6.0 16.0 0.00 0.00 0.00 63 1017.5
20260504042013 53 194 7.0 16.0 0.00 0.00 0.00 63 1017.5
20260504041942 53 207 7.0 15.0 0.00 0.00 0.00 63 1017.6
20260504041933 52 205 7.0 15.0 0.00 0.00 0.00 63 1017.6
20260504041710 53 220 7.0 15.0 0.00 0.00 0.00 63 1017.6
20260504041611 53 200 7.0 14.0 0.00 0.00 0.00 63 1017.6
20260504041512 53 215 7.0 14.0 0.00 0.00 0.00 63 1017.6
20260504041411 53 219 7.0 14.0 0.00 0.00 0.00 62 1017.6
20260504041307 53 188 6.0 14.0 0.00 0.00 0.00 63 1017.7
20260504041205 53 204 7.0 14.0 0.00 0.00 0.00 62 1017.7
20260504041106 53 221 6.0 14.0 0.00 0.00 0.00 62 1017.7
20260504041006 53 196 6.0 13.0 0.00 0.00 0.00 62 1017.7
20260504040906 53 196 6.0 13.0 0.00 0.00 0.00 62 1017.7
20260504040806 53 211 6.0 13.0 0.00 0.00 0.00 62 1017.7
20260504040706 53 202 6.0 13.0 0.00 0.00 0.00 63 1017.7
20260504040606 53 196 6.0 15.0 0.00 0.00 0.00 63 1017.7
20260504040506 53 213 5.0 15.0 0.00 0.00 0.00 63 1017.7
20260504040441 53 211 6.0 15.0 0.00 0.00 0.00 63 1017.8
20260504040429 53 198 6.0 15.0 0.00 0.00 0.00 63 1017.8
20260504040206 53 200 6.0 15.0 0.00 0.00 0.00 62 1017.9
20260504040106 53 213 6.0 15.0 0.00 0.00 0.00 62 1017.9
20260504040005 53 192 6.0 15.0 0.00 0.00 0.00 63 1017.9
20260504035905 53 188 6.0 15.0 0.00 0.00 0.00 62 1017.9
20260504035807 53 205 6.0 15.0 0.00 0.00 0.00 62 1017.9
20260504035703 53 182 6.0 14.0 0.00 0.00 0.00 63 1017.9
20260504035601 53 200 5.0 13.0 0.00 0.00 0.00 62 1017.9
20260504035500 53 187 5.0 13.0 0.00 0.00 0.00 62 1017.9
20260504035401 53 211 5.0 17.0 0.00 0.00 0.00 62 1018.0
20260504035259 53 165 5.0 17.0 0.00 0.00 0.00 62 1017.9
20260504035241 53 200 5.0 17.0 0.00 0.00 0.00 62 1018.0
20260504035227 53 190 5.0 17.0 0.00 0.00 0.00 62 1018.0
20260504035001 53 188 5.0 17.0 0.00 0.00 0.00 62 1017.9
20260504034859 53 262 5.0 17.0 0.00 0.00 0.00 62 1018.0
20260504034758 53 211 5.0 17.0 0.00 0.00 0.00 61 1018.0
20260504034659 53 211 5.0 17.0 0.00 0.00 0.00 62 1018.0
20260504034600 53 203 5.0 17.0 0.00 0.00 0.00 61 1018.0
20260504034458 53 205 5.0 17.0 0.00 0.00 0.00 62 1018.1
20260504034358 53 205 5.0 16.0 0.00 0.00 0.00 61 1018.1
20260504034318 53 192 5.0 16.0 0.00 0.00 0.00 61 1018.1
20260504034314 53 224 5.0 16.0 0.00 0.00 0.00 61 1018.1
20260504034302 53 171 5.0 16.0 0.00 0.00 0.00 61 1018.0
20260504034241 53 173 5.0 16.0 0.00 0.00 0.00 61 1018.1
20260504033914 53 187 5.0 12.0 0.00 0.00 0.00 60 1018.1
20260504033903 53 202 5.0 16.0 0.00 0.00 0.00 61 1018.1
20260504033839 53 151 5.0 16.0 0.00 0.00 0.00 60 1018.1
20260504033716 53 192 5.0 14.0 0.00 0.00 0.00 61 1018.1
20260504033454 53 198 5.0 12.0 0.00 0.00 0.00 60 1018.1
20260504033355 53 188 5.0 12.0 0.00 0.00 0.00 60 1018.1
20260504033254 53 201 5.0 11.0 0.00 0.00 0.00 60 1018.1
20260504033154 53 243 5.0 11.0 0.00 0.00 0.00 60 1018.2
20260504033055 53 200 5.0 11.0 0.00 0.00 0.00 60 1018.2
20260504032954 53 215 5.0 11.0 0.00 0.00 0.00 61 1018.2
20260504032854 53 244 5.0 12.0 0.00 0.00 0.00 60 1018.1
20260504032824 53 206 5.0 12.0 0.00 0.00 0.00 60 1018.1
20260504032813 53 200 5.0 12.0 0.00 0.00 0.00 60 1018.1
20260504032550 53 193 5.0 12.0 0.00 0.00 0.00 60 1018.1
20260504032452 53 197 5.0 19.0 0.00 0.00 0.00 60 1018.1
20260504032350 53 294 5.0 19.0 0.00 0.00 0.00 60 1018.1
20260504032250 53 201 5.0 19.0 0.00 0.00 0.00 60 1018.1
20260504032152 53 212 5.0 19.0 0.00 0.00 0.00 60 1018.1
20260504032051 53 205 5.0 19.0 0.00 0.00 0.00 60 1018.2
20260504031951 53 208 6.0 19.0 0.00 0.00 0.00 60 1018.1
20260504031851 53 204 6.0 19.0 0.00 0.00 0.00 60 1018.1
20260504031751 53 202 6.0 20.0 0.00 0.00 0.00 60 1018.1
20260504031652 53 207 6.0 20.0 0.00 0.00 0.00 60 1018.1
20260504031550 53 143 6.0 20.0 0.00 0.00 0.00 60 1018.1
20260504031451 53 167 6.0 20.0 0.00 0.00 0.00 60 1018.0
20260504031352 53 217 5.0 20.0 0.00 0.00 0.00 60 1018.1
20260504031251 53 171 6.0 20.0 0.00 0.00 0.00 60 1018.1
20260504031152 53 179 5.0 20.0 0.00 0.00 0.00 59 1018.2
20260504031052 54 188 5.0 20.0 0.00 0.00 0.00 59 1018.1
20260504030947 54 192 5.0 20.0 0.00 0.00 0.00 59 1018.1
20260504030844 54 219 5.0 20.0 0.00 0.00 0.00 60 1018.1
20260504030820 54 192 5.0 16.0 0.00 0.00 0.00 59 1018.1
20260504030807 54 203 5.0 16.0 0.00 0.00 0.00 59 1018.1
20260504030546 54 197 5.0 16.0 0.00 0.00 0.00 58 1018.2
20260504030438 54 193 5.0 16.0 0.00 0.00 0.00 59 1018.1
20260504030338 54 193 5.0 16.0 0.00 0.00 0.00 58 1018.2
20260504030314 54 185 5.0 13.0 0.00 0.00 0.00 58 1018.0
20260504030308 54 196 5.0 13.0 0.00 0.00 0.00 58 1018.1
20260504030254 54 275 5.0 16.0 0.00 0.00 0.00 59 1018.2
20260504030235 54 172 5.0 13.0 0.00 0.00 0.00 58 1018.2
20260504025950 54 248 5.0 13.0 0.00 0.00 0.00 58 1018.0
20260504025940 54 196 5.0 13.0 0.00 0.00 0.00 58 1018.1
20260504025919 54 199 5.0 13.0 0.00 0.00 0.00 58 1018.1
20260504025538 54 188 5.0 13.0 0.00 0.00 0.00 58 1018.0
20260504025437 54 200 5.0 13.0 0.00 0.00 0.00 58 1018.0
20260504025337 54 216 5.0 12.0 0.00 0.00 0.00 58 1018.1
20260504025304 54 157 5.0 12.0 0.00 0.00 0.00 58 1018.0
20260504025253 54 207 5.0 12.0 0.00 0.00 0.00 58 1018.0
20260504025032 54 192 5.0 12.0 0.00 0.00 0.00 57 1018.0
20260504025016 54 203 5.0 12.0 0.00 0.00 0.00 57 1018.0
20260504024958 54 197 5.0 12.0 0.00 0.00 0.00 57 1018.0
20260504024831 54 198 5.0 12.0 0.00 0.00 0.00 57 1018.0
20260504024824 54 180 5.0 12.0 0.00 0.00 0.00 57 1018.0
20260504024805 54 192 5.0 12.0 0.00 0.00 0.00 58 1018.0
20260504024424 54 209 5.0 12.0 0.00 0.00 0.00 57 1018.0
20260504024324 54 223 5.0 12.0 0.00 0.00 0.00 57 1018.0
20260504024219 54 194 5.0 12.0 0.00 0.00 0.00 57 1018.0
20260504024119 54 206 5.0 12.0 0.00 0.00 0.00 57 1018.0
20260504024018 54 206 5.0 11.0 0.00 0.00 0.00 57 1018.0
20260504023918 54 183 5.0 13.0 0.00 0.00 0.00 57 1018.0
20260504023819 54 196 5.0 13.0 0.00 0.00 0.00 57 1018.0
20260504023718 54 169 5.0 13.0 0.00 0.00 0.00 57 1017.9
20260504023619 54 200 5.0 13.0 0.00 0.00 0.00 56 1017.9
20260504023518 54 184 5.0 13.0 0.00 0.00 0.00 57 1017.9
20260504023416 54 213 5.0 13.0 0.00 0.00 0.00 57 1018.0
20260504023317 54 171 5.0 13.0 0.00 0.00 0.00 57 1018.0
20260504023256 54 236 5.0 13.0 0.00 0.00 0.00 56 1017.9
20260504023243 54 218 5.0 13.0 0.00 0.00 0.00 57 1017.9
20260504023012 54 206 5.0 13.0 0.00 0.00 0.00 56 1017.8
20260504022947 54 163 4.0 13.0 0.00 0.00 0.00 57 1017.6
20260504022937 54 257 5.0 13.0 0.00 0.00 0.00 56 1017.9
20260504022913 54 184 5.0 13.0 0.00 0.00 0.00 56 1017.8
20260504022800 54 218 5.0 13.0 0.00 0.00 0.00 57 1017.7
20260504022754 54 222 5.0 13.0 0.00 0.00 0.00 57 1017.6
20260504022738 54 205 5.0 13.0 0.00 0.00 0.00 56 1017.7
20260504022716 54 183 5.0 13.0 0.00 0.00 0.00 56 1017.8
20260504022209 54 196 5.0 13.0 0.00 0.00 0.00 57 1017.6
20260504022124 54 170 5.0 12.0 0.00 0.00 0.00 57 1017.4
20260504022114 54 207 5.0 12.0 0.00 0.00 0.00 57 1017.5
20260504022053 54 206 5.0 12.0 0.00 0.00 0.00 57 1017.6
20260504021931 54 181 5.0 12.0 0.00 0.00 0.00 56 1017.5
20260504021708 54 198 5.0 12.0 0.00 0.00 0.00 56 1017.5
20260504021610 54 200 5.0 12.0 0.00 0.00 0.00 56 1017.5
20260504021509 54 213 5.0 12.0 0.00 0.00 0.00 56 1017.4
20260504021409 54 211 5.0 12.0 0.00 0.00 0.00 56 1017.4
20260504021309 54 211 5.0 12.0 0.00 0.00 0.00 56 1017.5
20260504021209 54 199 5.0 12.0 0.00 0.00 0.00 56 1017.4
20260504021108 54 164 5.0 12.0 0.00 0.00 0.00 56 1017.5
20260504021010 54 163 5.0 12.0 0.00 0.00 0.00 57 1017.5
20260504020910 54 213 5.0 12.0 0.00 0.00 0.00 57 1017.4
20260504020809 54 205 5.0 12.0 0.00 0.00 0.00 57 1017.4
20260504020709 54 205 5.0 12.0 0.00 0.00 0.00 56 1017.4
20260504020608 54 204 5.0 12.0 0.00 0.00 0.00 57 1017.4
20260504020541 54 186 5.0 11.0 0.00 0.00 0.00 57 1017.4
20260504020529 54 199 5.0 12.0 0.00 0.00 0.00 57 1017.4
20260504020309 54 213 5.0 11.0 0.00 0.00 0.00 57 1017.4
20260504020208 54 216 5.0 11.0 0.00 0.00 0.00 57 1017.4
20260504020111 54 162 5.0 11.0 0.00 0.00 0.00 57 1017.3
20260504020008 54 199 5.0 10.0 0.00 0.00 0.00 57 1017.3
20260504015910 54 182 5.0 10.0 0.00 0.00 0.00 57 1017.3
20260504015809 54 208 4.0 10.0 0.00 0.00 0.00 57 1017.3
20260504015730 54 184 5.0 10.0 0.00 0.00 0.00 57 1017.2
20260504015719 54 213 4.0 10.0 0.00 0.00 0.00 57 1017.3
20260504015500 54 208 5.0 10.0 0.00 0.00 0.00 57 1017.2
20260504015356 54 202 4.0 10.0 0.00 0.00 0.00 57 1017.3
20260504015258 54 202 5.0 10.0 0.00 0.00 0.00 57 1017.2
20260504015156 54 205 5.0 10.0 0.00 0.00 0.00 57 1017.2
20260504015057 54 209 5.0 10.0 0.00 0.00 0.00 57 1017.2
20260504015040 54 196 4.0 10.0 0.00 0.00 0.00 57 1017.2
20260504015035 54 275 5.0 12.0 0.00 0.00 0.00 57 1017.3
20260504015029 54 209 5.0 12.0 0.00 0.00 0.00 57 1017.3
20260504015019 54 203 4.0 10.0 0.00 0.00 0.00 57 1017.2
20260504014836 54 221 4.0 10.0 0.00 0.00 0.00 57 1017.3
20260504014456 54 177 4.0 12.0 0.00 0.00 0.00 57 1017.3
20260504014357 54 213 4.0 12.0 0.00 0.00 0.00 57 1017.3
20260504014329 54 213 4.0 12.0 0.00 0.00 0.00 58 1017.2
20260504014319 54 234 4.0 12.0 0.00 0.00 0.00 57 1017.2
20260504014056 54 190 4.0 12.0 0.00 0.00 0.00 57 1017.2
20260504014031 54 207 4.0 12.0 0.00 0.00 0.00 57 1017.2
20260504014020 54 205 4.0 12.0 0.00 0.00 0.00 57 1017.2
20260504013758 54 220 4.0 12.0 0.00 0.00 0.00 57 1017.3
20260504013657 54 199 4.0 9.0 0.00 0.00 0.00 57 1017.3
20260504013557 54 190 4.0 9.0 0.00 0.00 0.00 58 1017.2
20260504013456 54 208 4.0 11.0 0.00 0.00 0.00 58 1017.3
20260504013356 54 184 4.0 11.0 0.00 0.00 0.00 58 1017.2
20260504013329 54 181 4.0 11.0 0.00 0.00 0.00 58 1017.3
20260504013318 54 224 4.0 11.0 0.00 0.00 0.00 58 1017.2
20260504013055 54 181 4.0 11.0 0.00 0.00 0.00 57 1017.3
20260504012954 54 198 4.0 11.0 0.00 0.00 0.00 57 1017.3
20260504012856 54 202 4.0 11.0 0.00 0.00 0.00 57 1017.3
20260504012754 54 180 4.0 11.0 0.00 0.00 0.00 58 1017.3
20260504012654 54 215 4.0 11.0 0.00 0.00 0.00 57 1017.3
20260504012554 54 221 4.0 11.0 0.00 0.00 0.00 57 1017.3
20260504012454 54 209 4.0 10.0 0.00 0.00 0.00 57 1017.3
20260504012350 54 207 4.0 10.0 0.00 0.00 0.00 57 1017.3
20260504012251 54 239 4.0 10.0 0.00 0.00 0.00 57 1017.4
20260504012150 54 190 4.0 11.0 0.00 0.00 0.00 57 1017.3
20260504012124 54 182 4.0 11.0 0.00 0.00 0.00 57 1017.3
20260504012113 54 178 4.0 11.0 0.00 0.00 0.00 57 1017.3
20260504011851 54 227 4.0 11.0 0.00 0.00 0.00 57 1017.3
20260504011750 54 271 4.0 11.0 0.00 0.00 0.00 57 1017.3
20260504011651 54 184 4.0 11.0 0.00 0.00 0.00 57 1017.4
20260504011550 54 184 3.0 11.0 0.00 0.00 0.00 57 1017.3
20260504011450 54 210 3.0 11.0 0.00 0.00 0.00 57 1017.3
20260504011352 54 207 3.0 11.0 0.00 0.00 0.00 58 1017.4
20260504011328 54 210 3.0 9.0 0.00 0.00 0.00 58 1017.4
20260504011317 54 206 3.0 11.0 0.00 0.00 0.00 57 1017.4
20260504011052 54 275 3.0 9.0 0.00 0.00 0.00 57 1017.4
20260504010952 54 221 3.0 9.0 0.00 0.00 0.00 57 1017.3
20260504010852 54 210 3.0 9.0 0.00 0.00 0.00 56 1017.4
20260504010752 54 171 3.0 13.0 0.00 0.00 0.00 56 1017.2
20260504010717 54 218 3.0 13.0 0.00 0.00 0.00 56 1017.3
20260504010706 54 172 3.0 13.0 0.00 0.00 0.00 56 1017.3
20260504010444 54 194 3.0 13.0 0.00 0.00 0.00 56 1017.4
20260504010344 54 225 3.0 13.0 0.00 0.00 0.00 56 1017.4
20260504010244 54 229 3.0 13.0 0.00 0.00 0.00 56 1017.4
20260504010138 54 186 3.0 13.0 0.00 0.00 0.00 56 1017.3
20260504010109 54 171 3.0 13.0 0.00 0.00 0.00 56 1017.4
20260504010100 54 169 3.0 13.0 0.00 0.00 0.00 56 1017.4
20260504005838 54 199 3.0 8.0 0.00 0.00 0.00 56 1017.4
20260504005738 54 199 3.0 8.0 0.00 0.00 0.00 56 1017.4
20260504005636 54 193 3.0 8.0 0.00 0.00 0.00 56 1017.5
20260504005536 54 209 3.0 8.0 0.00 0.00 0.00 56 1017.4
20260504005435 54 209 3.0 8.0 0.00 0.00 0.00 56 1017.5
20260504005336 54 202 3.0 8.0 0.00 0.00 0.00 55 1017.5
20260504005235 54 242 3.0 8.0 0.00 0.00 0.00 57 1017.5
20260504005133 54 164 3.0 8.0 0.00 0.00 0.00 56 1017.5
20260504005032 54 171 3.0 8.0 0.00 0.00 0.00 57 1017.4
20260504004931 54 215 2.0 8.0 0.00 0.00 0.00 56 1017.4
20260504004832 54 181 2.0 6.0 0.00 0.00 0.00 58 1017.4
20260504004732 54 155 2.0 6.0 0.00 0.00 0.00 57 1017.5
20260504004631 54 290 2.0 8.0 0.00 0.00 0.00 56 1017.5
20260504004528 53 217 2.0 8.0 0.00 0.00 0.00 57 1017.5
20260504004430 53 192 2.0 8.0 0.00 0.00 0.00 57 1017.5
20260504004326 54 214 2.0 8.0 0.00 0.00 0.00 57 1017.5
20260504004226 54 194 2.0 8.0 0.00 0.00 0.00 59 1017.6